SCP
0 0 0 0 0 0 0 0 0 0 0 0 0 0 0 0 0 0 0 0 0 0 0 0 0 0 0 0 0 0 0 0 0 0 0 0 -0 -0 -0 -0 -0 -0 -0
0 0 0 0 0 0 0 0 0 0 0 0 0 0 0 0 0 0 0 0 0 0 0 0 0 0 0 0 0 0 0 0 0 0 0 0 0 -0 -0 -0 -0 -0 -0
0 0 0 0 0 0 0 0 0 0 0 0 0 0 0 0 0 0 0 0 0 0 0 0 0 0 0 0 0 0 0 0 0 0 0 0 0 0 -0 -0 0 0 0
0 0 0 0 0 0 0 0 0 0 0 0 0 0 0 0 0 0 0 0 0 0 0 0 0 0 0 0 0 0 0 0 0 0 0 0 0 0 0 0 0 0 0
0 0 0 0 0 0 0 0 0 0 0 0 0 0 0 0 0 0 0 0 0 0 0 0 0 0 0 0 0 0 0 0 0 0 0 0 0 0 0 0 0 0 0
0 0 0 0 0 0 0 0 0 0 0 0 0 0 0 0 0 0 0 0 0 0 0 0 0 0 0 0 0 0 0 0 0 0 0 0 0 0 0 0 0 0 0
0 0 0 0 0 0 0 0 0 0 0 0 0 0 0 0 0 0 0 0 0 0 0 0 0 0 0 0 0 0 0 0 0 0 0 0 0 0 0 0 0 0 0
0 0 0 0 0 0 0 0 0 0 0 0 0 0 0 0 0 0 0 0 0 0 0 0 0 0 0 0 0 0 0 0 0 0 0 0 0 0 0 0 0 0 0
0 0 0 0 0 0 0 0 0 0 0 0 0 0 0 0 0 0 0 0 0 0 0 0 0 0 0 0 0 0 0 0 0 0 0 0 0 0 0 0 0 0 0
0 0 0 0 0 0 0 0 0 0 0 0 0 0 0 0 0 0 0 0 0 0 0 0 0 0 0 0 0 0 0 0 0 0 0 0 0 0 0 0 0 0 0
0 0 0 0 0 0 0 0 0 0 0 0 0 0 0 0 0 0 0 0 0 0 0 0 0 0 0 0 0 0 0 0 0 0 0 0 0 0 0 0 0 0 0
0 0 0 0 0 0 0 0 0 0 0 0 0 0 0 0 0 0 0 0 0 0 0 0 0 0 0 0 0 0 0 0 0 0 0 0 0 0 0 0 0 0 0
0 0 0 0 0 0 0 0 0 0 0 0 0 0 0 0 0 0 0 0 0 0 0 0 0 0 0 0 0 0 0 0 0 0 0 0 0 0 0 0 0 0 0
0 0 0 0 0 0 0 0 0 0 0 0 0 0 0 0 0 0 0 0 0 0 0 0 0 0 0 0 0 0 0 0 0 0 0 0 0 0 0 0 0 0 0
0 0 0 0 0 0 0 0 0 0 0 0 0 0 0 0 0 0 0 0 0 0 0 0 0 0 0 0 0 0 0 0 0 0 0 0 0 0 0 0 0 0 0
0 0 0 0 0 0 0 0 0 0 0 0 0 0 0 0 0 0 0 0 0 0 0 0 0 0 0 0 0 0 0 0 0 0 0 0 0 0 0 0 0 0 0
0 0 0 0 0 0 0 0 0 0 0 0 0 0 0 0 0 0 0 0 0 0 0 0 0 0 0 0 0 0 0 0 0 0 0 0 0 0 0 0 0 0 0
0 0 0 0 0 0 0 0 0 0 0 0 0 0 0 0 0 0 0 0 0 0 0 0 0 0 0 0 0 0 0 0 0 0 0 0 0 0 0 0 0 0 0
0 0 0 0 0 0 0 0 0 0 0 0 0 0 0 0 0 0 0 0 0 0 0 0 0 0 0 0 0 0 0 0 0 0 0 0 0 0 0 0 0 0 0
0 0 0 0 0 0 0 0 0 0 0 0 0 0 0 0 0 0 0 0 0 0 0 0 0 0 0 0 0 0 0 0 0 0 0 0 0 0 0 0 0 0 0
0 0 0 0 0 0 0 0 0 0 0 0 0 0 0 0 0 0 0 0 0 0 0 0 0 0 0 0 0 0 0 0 0 0 0 0 0 0 0 0 0 0 0
0 0 0 0 0 0 0 0 0 0 0 0 0 0 0 0 0 0 0 0 0 0 0 0 0 0 0 0 0 0 0 0 0 0 0 0 0 0 0 0 0 0 0
0 0 0 0 0 0 0 0 0 0 0 0 0 0 0 0 0 0 0 0 0 0 0 0 0 0 0 0 0 0 0 0 0 0 0 0 0 0 0 0 0 0 0
0 0 0 0 0 0 0 0 0 0 0 0 0 0 0 0 0 0 0 0 0 0 0 0 0 0 0 0 0 0 0 0 0 0 0 0 0 0 0 0 0 0 0
0 0 0 0 0 0 0 0 0 0 0 0 0 0 0 0 0 0 0 0 0 0 0 0 0 0 0 0 0 0 0 0 0 0 0 0 0 0 0 0 0 0 0
0 0 0 0 0 0 0 0 0 0 0 0 0 0 0 0 0 0 0 0 0 0 0 0 0 0 0 0 0 0 0 0 0 0 0 0 0 0 0 0 0 0 0
Wind_Speed
10 9 9 9 8 8 7 7 6 5 4 3 2 2 2 2 3 4 4 5 6 6 6 7 8 8 7 7 7 8 8 10 15 15 13 14 19 19 16 15 15 16 15
10 10 9 9 8 7 7 7 6 5 4 3 2 1 1 2 3 4 4 5 6 7 8 8 9 7 9 8 8 9 9 11 13 19 15 13 17 18 18 18 15 14 15
11 11 10 9 9 8 7 6 6 5 4 3 3 2 2 3 4 4 5 6 7 8 8 9 10 10 10 9 10 11 10 10 11 14 17 13 13 13 17 17 18 15 15
12 12 11 11 10 9 7 7 6 5 5 5 4 4 4 4 5 5 6 7 8 8 8 9 10 10 11 12 11 12 11 12 12 13 15 14 13 13 13 14 14 13 13
13 13 12 10 9 8 8 7 6 6 5 5 5 4 5 5 4 6 7 8 9 9 9 9 10 12 15 13 12 12 13 12 12 12 14 14 13 12 12 12 14 14 15
14 14 11 9 9 9 8 8 7 7 6 6 6 6 6 5 6 9 9 9 9 10 10 10 10 11 13 17 19 20 18 15 14 14 14 15 17 15 13 12 13 15 15
11 10 8 9 10 10 9 9 9 8 7 7 7 7 7 7 9 10 11 10 10 9 10 10 9 9 12 13 16 19 18 20 22 18 18 18 18 16 17 17 15 16 16
11 10 10 10 10 10 10 10 9 7 7 7 7 7 7 7 10 11 12 10 9 9 10 11 12 12 12 15 15 16 16 16 19 16 17 19 19 19 18 18 18 19 19
11 11 11 11 11 11 11 10 8 7 7 7 6 7 7 8 10 11 12 8 8 9 10 11 12 13 18 21 18 17 18 17 20 25 27 27 31 32 27 17 16 16 17
11 10 9 10 11 11 11 9 7 7 6 6 6 6 7 8 10 11 11 6 7 8 9 10 13 16 20 23 18 17 19 18 17 18 19 21 21 22 26 20 16 15 16
7 7 8 9 10 9 8 7 6 6 6 6 7 7 7 8 9 10 10 6 7 9 9 9 9 18 23 25 24 18 21 22 17 16 15 15 15 13 14 14 14 14 15
7 8 8 8 8 7 8 7 6 6 6 7 7 7 6 6 8 9 11 11 11 10 10 9 11 21 24 26 21 21 26 22 12 11 11 12 12 12 12 13 15 16 17
8 8 8 8 7 7 8 7 6 6 6 6 6 6 5 4 6 10 11 12 13 10 9 15 18 21 22 17 19 23 17 10 9 10 11 11 11 13 14 13 15 16 18
9 9 8 8 8 7 6 6 6 7 7 6 6 6 5 4 5 5 5 7 9 9 8 8 13 15 14 13 12 11 8 9 10 10 11 12 12 12 12 12 13 12 13
9 8 8 8 8 7 7 7 8 7 7 7 6 5 5 5 6 9 8 7 7 6 5 4 6 6 7 7 8 8 8 9 9 10 11 12 12 12 12 12 12 12 13
8 8 7 6 6 6 6 6 12 12 13 16 15 12 9 12 13 13 13 13 10 7 4 4 5 6 7 8 9 9 9 9 9 10 11 11 12 13 13 12 12 12 14
8 7 6 5 5 5 5 5 5 7 11 13 14 14 13 13 13 13 12 9 5 4 2 4 5 6 7 7 8 9 10 11 10 11 11 12 12 13 13 13 13 13 13
6 5 5 4 4 5 5 5 5 5 5 5 6 9 11 12 12 11 9 4 2 1 3 4 5 6 6 7 8 9 10 10 10 11 12 12 12 13 13 13 13 15 14
5 4 4 3 3 4 4 4 4 5 5 5 4 5 6 7 9 9 4 2 4 4 4 5 5 6 7 7 8 9 10 10 11 11 12 13 12 13 13 13 14 17 16
3 4 4 3 3 4 4 4 5 5 6 6 6 5 3 3 3 4 3 3 4 5 5 5 6 6 7 7 8 8 9 10 11 11 11 12 12 12 14 15 14 14 14
3 3 4 3 4 4 4 5 5 5 6 6 6 7 9 6 5 5 4 5 5 5 5 6 6 7 7 7 7 9 11 10 10 11 11 12 13 13 12 13 13 13 13
3 3 3 3 3 4 4 5 5 6 7 8 6 7 10 6 5 5 5 5 5 5 6 6 7 7 7 7 8 8 9 10 10 11 11 12 12 12 12 12 12 13 12
3 3 3 3 3 4 5 5 5 6 7 7 7 6 5 5 5 6 6 5 5 6 6 6 7 7 7 7 8 8 9 10 10 12 13 13 12 12 11 12 14 14 13
3 3 3 3 3 4 5 5 6 6 7 7 6 6 6 6 6 6 6 6 6 6 6 6 7 10 12 10 8 8 9 11 12 12 15 13 12 11 11 11 12 13 12
3 3 3 4 4 4 5 6 6 6 6 7 6 6 6 6 6 6 6 6 7 7 8 8 7 9 11 12 12 11 14 17 17 14 12 9 10 10 10 11 10 11 10
3 3 4 4 4 5 5 6 6 6 6 6 6 6 6 6 6 6 6 6 6 7 7 7 9 11 12 12 14 15 16 18 19 16 8 6 7 7 9 7 10 9 10
Wind_Direction
166 161 157 155 153 150 146 146 145 143 143 136 116 85 38 8 355 339 336 330 325 321 319 316 312 311 307 304 299 290 284 282 284 290 293 299 301 301 302 300 296 293 289
176 173 169 164 163 164 161 158 159 160 159 158 163 196 298 315 317 313 313 313 311 311 313 310 308 310 306 302 298 295 292 288 286 292 296 298 298 300 301 300 298 292 288
183 182 179 178 179 178 173 170 175 180 185 191 210 233 260 283 292 291 295 299 299 300 301 302 304 305 301 301 299 295 293 291 289 290 294 298 297 299 300 298 297 293 289
190 192 192 192 190 185 179 181 188 197 205 212 222 237 255 271 276 280 289 292 293 292 293 293 295 295 297 300 297 294 294 295 293 291 292 297 299 301 299 300 302 303 301
195 200 204 199 193 186 184 186 192 204 216 223 231 239 248 258 261 279 292 291 293 294 292 290 289 291 291 291 290 294 296 294 294 292 291 295 297 303 303 305 300 303 300
201 206 206 196 189 190 189 188 194 203 211 222 231 237 246 250 264 279 290 293 291 289 291 292 290 285 286 291 291 291 290 288 288 288 288 289 294 297 298 297 299 298 299
202 205 198 194 197 197 192 192 199 203 209 221 230 234 243 253 265 278 288 291 286 285 287 289 289 289 292 291 293 293 289 283 279 279 281 283 288 291 292 291 287 288 287
205 208 203 201 203 197 194 201 202 201 209 221 228 235 246 251 265 282 291 286 280 279 281 284 288 291 293 295 294 290 286 282 279 275 273 276 277 279 278 279 281 280 279
208 211 206 201 200 197 201 204 200 202 212 220 226 231 242 256 268 281 286 283 277 280 281 282 285 289 293 297 296 293 291 287 285 280 276 275 276 277 276 277 278 280 281
211 210 201 196 198 201 203 199 197 203 217 223 233 234 244 255 267 275 281 277 281 285 285 283 283 290 296 300 298 295 293 294 294 293 289 286 283 280 278 272 272 273 276
197 187 187 191 195 196 191 189 190 204 220 230 242 244 244 248 262 269 273 271 278 288 291 294 295 300 302 302 301 297 297 304 305 302 298 293 290 284 279 273 267 264 268
172 179 183 182 181 178 179 184 192 205 222 234 242 248 237 237 247 261 270 277 285 288 290 294 297 304 307 309 309 306 310 312 305 299 294 291 291 292 291 289 282 275 268
173 181 178 173 177 175 182 188 195 206 226 236 236 245 241 233 246 263 275 282 285 284 285 293 305 312 316 314 310 313 316 310 303 299 294 293 294 295 294 291 286 279 274
182 184 177 179 185 185 195 199 204 209 220 231 236 243 246 244 248 253 261 272 279 285 294 312 318 315 313 310 312 314 311 305 303 297 296 297 297 296 292 290 288 286 281
188 185 186 190 193 193 203 211 214 222 225 231 236 238 245 252 250 262 275 283 290 303 331 322 313 316 317 316 314 311 309 307 304 302 301 300 299 298 296 295 291 287 281
188 190 190 191 192 200 208 225 235 239 244 247 248 248 248 255 273 278 285 291 305 332 334 302 302 303 306 310 312 312 312 310 309 307 302 300 300 301 301 299 295 291 287
193 187 187 192 194 201 209 222 239 238 248 258 263 269 272 277 279 282 286 299 336 358 294 277 283 290 295 298 301 303 306 307 308 303 301 303 302 301 301 301 300 296 292
186 180 186 193 200 207 215 224 233 243 250 249 257 267 275 277 276 278 288 312 293 278 258 268 275 281 286 291 294 297 299 302 303 303 302 301 301 303 303 301 300 299 297
176 177 184 194 204 214 222 229 234 238 247 255 262 267 268 282 283 277 285 254 266 266 259 261 268 276 280 284 287 290 292 295 298 300 300 301 303 305 304 302 300 298 297
175 183 185 199 211 220 226 233 238 242 246 248 251 257 253 247 242 239 230 235 245 253 257 263 268 271 276 279 283 286 290 292 296 297 299 302 305 307 306 304 302 302 300
173 182 191 207 220 228 234 240 245 248 250 253 253 253 249 243 246 245 243 241 243 251 258 266 270 273 272 275 279 284 288 290 293 296 299 305 308 309 308 305 304 303 304
175 188 202 219 230 236 242 246 249 251 255 257 260 264 270 264 255 251 248 247 245 247 253 260 265 267 269 272 277 283 286 288 291 296 301 305 307 310 311 310 310 312 312
182 196 210 224 236 241 246 248 248 251 255 257 260 259 255 248 246 247 250 250 249 250 250 251 259 266 266 265 268 272 277 282 288 293 298 301 308 313 314 315 316 318 320
190 209 228 239 245 249 253 255 254 254 255 256 254 253 252 251 249 252 253 254 254 255 252 251 254 262 271 275 274 272 272 276 282 284 288 294 305 311 314 317 318 322 325
202 221 236 246 252 256 259 261 260 259 258 256 254 253 252 251 253 255 255 254 258 260 261 261 260 265 270 276 280 281 282 285 285 283 285 291 304 311 316 318 323 328 334
220 231 239 244 248 252 256 260 262 261 259 257 255 253 253 254 256 259 259 257 259 263 267 266 264 269 276 281 283 285 289 292 293 294 291 294 304 314 324 325 331 337 344